User: anonymous   Login
Location: Balsareny
(41.8670°N, 1.8830°E)
Time: 21:45:20
(UTC+01:00)
Language:

ISS - Orbit

View from above orbital plane
View from above orbital plane
View from above satellite
View from above satellite

Ground track
Ground track

The orbit data is extracted from the following two-line orbital elements,

1 25544U 98067A   22025.57757553  .00006913  00000-0  13063-3 0  9990
2 25544  51.6448 322.8238 0006950  60.9199 113.2419 15.49631067323069
Epoch (UTC): 25 January 2022 13:51:42
Eccentricity: 0.0006950
inclination: 51.6448°
perigee height: 413 km
apogee height: 422 km
right ascension of ascending node: 322.8238°
argument of perigee: 60.9199°
revolutions per day: 15.49631067
mean anomaly at epoch: 113.2419°
orbit number at epoch: 32306

The dashed part of the orbit path shows where the satellite is in the earth's shadow,  

DLR